Location: �terpigny
(49.8910°N, 2.9249°E)
Time: 19:19:58
(UTC+00:00)

Cosmos 1825 - Pass Details

Date: 24 October 2021
Orbit: 501 x 504 km, 82.5° (Epoch: 07 December)

Event Time Altitude Azimuth Distance (km) Brightness Sun altitude
Rises 17:55:15 0° 1° (N) 2,612 5.7 -12.8°
Reaches altitude 10° 17:57:48 10° 19° (NNE) 1,722 4.6 -13.2°
Enters shadow 18:00:13 20° 58° (ENE) 1,216 3.6 -13.6°
